Location: Home
(42.5358°N, 72.7383°W)
Time: 05:40:38
(UTC-05:00)

Transit 4A - Pass Details

Date: 30 November 2021
Orbit: 863 x 981 km, 66.8° (Epoch: 25 January)

Event Time Altitude Azimuth Distance (km) Brightness Sun altitude
Rises 19:37:57 0° 203° (SSW) 3,438 11.1 -36.0°
Reaches altitude 10° 19:40:23 10° 202° (SSW) 2,513 10.3 -36.5°
Enters shadow 19:40:35 11° 202° (SSW) 2,435 10.2 -36.5°
